"Pseudo-MPEC" for A115Vyy

Created 2024 Apr 24 1:22:04 UT using Find_Orb

Click here for an explanation of pseudo-MPECs

 
 Astrometry: 
     A115Vyy* C2024 04 174mq4H;PJJLZ7rssR!4otP;vXAstrometryyvqg:gb(4Y\tFaxLA5M22
     A115Vyy  C2024 04 17DnbvowFD'at`aq1(eRjmg#c#QcdO5_ZT0##VG+BEYmV;Xc_%PbhSM22
     A115Vyy  C2024 04 17mQrB@1`e@1CDAD)9@NL3^gEGJQBl_5wWredacted;1BKblclick)M22
     A115Vyy  C2024 04 17+6here%OspGk]_2]a9-for8[TQqQb\o+.hmKxjP'cIQd:5Ird?Y#M22
     A115Vyy  C2024 04 17U3.?qbhp0oJ6Gn@(WiZA]IEdu/)Tf8Bu;F']HQnqexplanationVM22

Station data:
(M22) ATLAS South Africa, Sutherland  (S32.380156 E20.810590)  South Africa.
   Observers L. Denneau, R. Siverd, J. Tonry, H. Weiland. Measurers L.
   Denneau, N. Erasmus, A. Fitzsimmons, A. Lawrence, J. Robinson, R. Siverd,
   J. Tonry, H. Weiland. 0.5-m reflector + CCD.

Orbital elements:  A115Vyy
   Perigee 2024 Apr 16.57566 +/- 0.329 TT = 13:48:57 (JD 2460417.07566)
Epoch 2024 Apr 17.0 TT = JDT 2460417.5                           AutoNEOCP
M 157.99267417 +/- 70               (J2000 equator)
n 372.32987984 +/- 209              Peri.  336.52027 +/- 7
a 41303.3153 +/- 13929              Node    85.89318 +/- 8
e   0.8252386 +/- 0.107             Incl.    7.39094 +/- 2.6
P1392.29m/0.967d           H 31.86  G  0.15   U 16.3
q 7218.22365 +/- 6465    Q 75388.4069 +/- 21411
3 of 5 observations 2024 Apr. 17 (65.3 min); mean residual 0".19
Residuals in arcseconds: 
240417 M22( .86+  .93+)   240417 M22  .14+  .26-    240417 M22  .10+  .26-    
240417 M22( .83+  .23+)   240417 M22  .10+  .19-    

Ephemerides (geocentric):
Date (UTC) HH   RA             Dec           delta  r     elong  mag " sig PA
---- --------  ------------   ------------  ------ ------ -----  --- --------
2024 04 24 01  17 13 11.702   +00 50 15.69   65010 1.0060 131.9 16.9  24d  99
2024 04 24 02  17 28 14.657   +00 20 47.63   60279 1.0060 128.5 16.8  26d  98
2024 04 24 03  17 46 12.149   -00 14 29.00   54431 1.0059 124.3 16.7  28d  98
2024 04 24 04  18 09 05.122   -00 59 16.47   47247 1.0059 119.0 16.5  32d  98
2024 04 24 05  18 41 28.588   -02 01 31.69   38369 1.0058 111.5 16.3  38d  97
2024 04 24 06  19 37 36.035   -03 42 46.50   27125 1.0058  98.2 16.0  49d  96
2024 04 24 07  22 30 22.720   -07 08 07.24   12325 1.0057  57.7 16??  89d  92
2024 04 24 08  10 34 20.504   +07 10 43.51   14178 1.0058 123.2 13.8  93d  88
2024 04 24 09  12 58 04.342   +07 01 17.57   28552 1.0060 153.5 14.5  61d  93
2024 04 24 10  13 50 32.340   +06 15 59.13   39478 1.0060 160.2 15.0  53d  95
2024 04 24 11  14 21 46.127   +05 39 29.65   48139 1.0061 161.1 15.4  51d  96
2024 04 24 12  14 44 07.994   +05 09 24.97   55158 1.0062 159.8 15.7  55d  97
2024 04 24 13  15 01 48.936   +04 43 30.31   60871 1.0062 157.9 16.0  70d  98
2024 04 24 14  15 16 42.112   +04 20 21.03   65485 1.0062 155.8 16.2 160d 100
2024 04 24 15  15 29 48.102   +03 59 02.40   69132 1.0063 153.7 16.4  69d  99
2024 04 24 16  15 41 43.526   +03 38 56.49   71902 1.0063 151.6 16.5  50d  99
2024 04 24 17  15 52 52.833   +03 19 34.94   73852 1.0063 149.6 16.7  42d  99
2024 04 24 18  16 03 33.923   +03 00 34.68   75022 1.0063 147.5 16.7  38d 100
2024 04 24 19  16 14 01.208   +02 41 35.17   75434 1.0063 145.4 16.8  36d 100
2024 04 24 20  16 24 27.530   +02 22 16.35   75095 1.0063 143.2 16.9  34d  99
2024 04 24 21  16 35 05.642   +02 02 16.61   73999 1.0063 141.0 16.9  34d  99
2024 04 24 22  16 46 09.655   +01 41 10.56   72125 1.0063 138.6 16.9  34d  99
2024 04 24 23  16 57 56.878   +01 18 25.78   69437 1.0063 136.0 16.9  34d  99
2024 04 25 00  17 10 50.690   +00 53 17.57   65877 1.0063 133.2 16.9  35d  99
2024 04 25 01  17 25 25.739   +00 24 39.37   61361 1.0062 129.9 16.8  36d  99
2024 04 25 02  17 42 38.701   -00 09 16.61   55760 1.0062 126.0 16.7  39d  99
2024 04 25 03  18 04 13.989   -00 51 43.89   48878 1.0062 121.0 16.6  42d  98
2024 04 25 04  18 33 58.627   -01 49 22.36   40395 1.0061 114.1 16.4  47d  98
2024 04 25 05  19 22 40.848   -03 19 13.06   29726 1.0061 102.6 16.1  58d  97
2024 04 25 06  21 26 12.683   -06 17 47.16   15730 1.0060  73.5 16.0  87d  94
2024 04 25 07  09 13 10.992   +06 04 01.31   10777 1.0060 103.4 13.8  99d  85
2024 04 25 08  12 41 52.326   +07 11 58.97   25890 1.0062 149.7 14.4  49d  92
2024 04 25 09  13 42 46.753   +06 24 27.07   37418 1.0063 159.0 14.9  36d  94
2024 04 25 10  14 16 52.107   +05 45 46.41   46488 1.0064 160.9 15.3  30d  95
2024 04 25 11  14 40 35.514   +05 14 15.46   53815 1.0064 160.2 15.7  27d  96
2024 04 25 12  14 59 02.237   +04 47 22.63   59781 1.0065 158.5 15.9  25d  96
2024 04 25 13  15 14 23.600   +04 23 32.61   64612 1.0065 156.6 16.2  25d  97
2024 04 25 14  15 27 47.798   +04 01 44.74   68452 1.0065 154.5 16.3  25d  98
2024 04 25 15  15 39 55.127   +03 41 17.72   71399 1.0065 152.5 16.5  28d  98
2024 04 25 16  15 51 11.961   +03 21 41.26   73517 1.0066 150.5 16.6  32d  99
2024 04 25 17  16 01 57.244   +03 02 31.18   74847 1.0066 148.4 16.7  41d  99
2024 04 25 18  16 12 25.920   +02 43 26.44   75416 1.0066 146.4 16.8  68d  99
2024 04 25 19  16 22 51.021   +02 24 06.86   75234 1.0066 144.3 16.8 129d 100
2024 04 25 20  16 33 25.193   +02 04 11.23   74297 1.0066 142.1 16.9  74d 100
2024 04 25 21  16 44 22.122   +01 43 15.07   72588 1.0066 139.7 16.9  60d 100
2024 04 25 22  16 55 58.248   +01 20 47.67   70074 1.0065 137.2 16.9  55d 100
2024 04 25 23  17 08 35.345   +00 56 07.39   66702 1.0065 134.5 16.9  52d  99
2024 04 26 00  17 22 45.061   +00 28 13.27   62395 1.0065 131.3 16.8  51d  99